Starlink 32552

operational
NORAD ID: 62174 Int'l Des: 2024-225 Owner: SPXS Country: US Constellation: starlink
LEOCIRCULAR

About Starlink 32552

Description loading...

Live Position

Loading 3D Globe...

Upcoming Passes

Altitude History

Altitude vs Time

uPlot chart will show altitude changes over time

Two-Line Element Set

1 62174U 24225M 25303.87907959 .00008399 00000-0 71053-3 0 9990
2 62174 69.9994 131.6390 0003343 276.1918 83.8860 14.98346811 50438
Epoch: Oct 30, 2025 • Age: 11 hours

Current Status

Altitude 581.8 km
Velocity 7.57 km/s
Sub-Earth Point 52.50°N, 9.85°W
Launch Date Nov 30, 2024
Age 0.9 years
Type internet

Technical Details

Classification Payload
Mass 730.00 kg
Dry Mass 700.00 kg
Total Mass 730.00 kg
Length 0.30 m
Diameter 4.10 m
Span 29.00 m
Shape Box + pan
Manufacturer SPXS
Bus Type Starlink V2M
Phase Status In Orbit
Owner/State SPXS/US

Large Constellations

Loading constellations...